Regional Weather Roundup
Issued by NWS

Home | Current Version | Previous Version | Graphics & Text | Print | Product List | Glossary On
Versions: 1 2 3 4 5 6 7 8 9 10 11 12 13 14 15 16 17 18 19 20 21 22 23 24 25 26 27 28 29 30 31 32 33 34 35 36 37 38 39 40 41 42 43 44 45 46 47 48 49 50
000
ASUS43 KIND 011909
RWRIN

WEATHER ROUNDUP FOR INDIANA
NATIONAL WEATHER SERVICE INDIANAPOLIS IN
300 PM EDT FRI AUG 01 2014

NOTE: "FAIR" INDICATES FEW OR NO CLOUDS BELOW 12,000 FEET WITH NO
SIGNIFICANT WEATHER AND/OR OBSTRUCTIONS TO VISIBILITY.

* - STATION DOES NOT REPORT WEATHER SUCH AS PRECIPITATION OR FOG.

+ - STATION NOT QUALITY CONTROLLED BY THE NATIONAL WEATHER SERVICE.
    USE DATA WITH CAUTION...ESPECIALLY DEWPOINT AND RELATIVE
    HUMIDITY OBSERVATIONS.

INZ001>003-010>013-019-020-012000-
NORTHWEST INDIANA

CITY           SKY/WX    TMP DP  RH WIND       PRES   REMARKS
GARY /AIRPORT/ PTSUNNY   72  63  73 N7        30.09S
KNOX *+        CLOUDY    64  58  82 NE31G41   30.10R
LA PORTE +     CLOUDY    68  60  76 S5        30.12R
MICHIGAN CITY+ PTSUNNY   73  59  60 CALM      30.10S
MONTICELLO +   MOSUNNY   80  60  50 W3        30.08F
RENSSELAER +   MOSUNNY   79  61  53 SW3       30.09F
VALPARAISO     NOT AVBL

$$

LMZ046-743>745-012000-
SOUTHERN LAKE MICHIGAN

STATION/POSITION TIME  TEMP WIND        PRES
                       AIR  DIR/SP/G
                 (UTC) (F)  (DEG/KT/KT) (MB)
MICHIGAN CITY    1900   73   20/  5/  6   N/A

$$

INZ004-005-014>016-021>024-012000-
NORTH CENTRAL INDIANA

CITY           SKY/WX    TMP DP  RH WIND       PRES   REMARKS
GOSHEN         CLOUDY    70  53  54 NW13G23   30.13R THUNDER
LOGANSPORT +   SUNNY     81  55  41 S5        30.10F
PERU/GRISSOM   SUNNY     81  62  52 VRB2      30.09F
ROCHESTER +    MOSUNNY   86  55  35 S6        30.10S
SOUTH BEND     PTSUNNY   74  60  61 S9        30.12R
WARSAW +       MOSUNNY   79  59  50 CALM      30.10S

$$

INZ006>009-017-018-025>027-012000-
NORTHEAST INDIANA

CITY           SKY/WX    TMP DP  RH WIND       PRES   REMARKS
ANGOLA *+      MOSUNNY   81  61  50 S9        30.10F
AUBURN +       MOSUNNY   82  52  34 W6        30.11F
FORT WAYNE     PTSUNNY   80  60  50 S5        30.10F
HUNTINGTON +   MOSUNNY   80  59  48 S7        30.09F

$$

INZ028-029-035-036-043>045-051>053-012000-
WEST CENTRAL INDIANA

CITY           SKY/WX    TMP DP  RH WIND       PRES   REMARKS
GREENCASTLE +  PTSUNNY   79  61  53 SE5       30.09F
LAFAYETTE      SUNNY     82  57  42 W5        30.07F
TERRE HAUTE    CLOUDY    81  57  43 CALM      30.09F

$$

INZ030>032-037>040-046>048-054>057-064-065-012000-
CENTRAL INDIANA

CITY           SKY/WX    TMP DP  RH WIND       PRES   REMARKS
ANDERSON       MOSUNNY   81  55  41 CALM      30.10
CP ATTERBURY + PTSUNNY   81  57  44 CALM      30.09F
COLUMBUS       MOSUNNY   81  61  50 CALM      30.09F
GREENWOOD *+   CLOUDY    79  64  61 CALM      30.10
INDIANAPOLIS   PTSUNNY   79  59  50 E7        30.08F
-EAGLE CREEK   MOSUNNY   81  58  45 E10       30.09S
KOKOMO *+      SUNNY     81  63  54 SE5       30.09F
MARION +       MOSUNNY   79  59  51 CALM      30.10F
MT COMFORT *+  MOSUNNY   79  64  61 CALM      30.10F
SHELBYVILLE    MOSUNNY   84  60  44 CALM      30.09F
ZIONSVILLE +   MOSUNNY   81  57  43 CALM      30.10F

$$

INZ033-034-041-042-049-050-058-059-012000-
EAST CENTRAL INDIANA

CITY           SKY/WX    TMP DP  RH WIND       PRES   REMARKS
MUNCIE         PTSUNNY   79  60  52 N3        30.10F

$$

INZ060-061-067>069-081>083-085>088-012000-
SOUTHWEST INDIANA

CITY           SKY/WX    TMP DP  RH WIND       PRES   REMARKS
EVANSVILLE     CLOUDY    82  59  45 NW3       30.07F
WASHINGTON +   SUNNY     82  62  51 CALM      30.07F

$$

INZ062-063-066-070>080-084-089>092-012000-
SOUTH CENTRAL AND SOUTHEAST INDIANA

CITY           SKY/WX    TMP DP  RH WIND       PRES   REMARKS
BLOOMINGTON    MOSUNNY   81  59  47 VRB3      30.09F
SEYMOUR +      SUNNY     81  39  22 CALM      30.08

$$



USA.gov is the U.S. government's official web portal to all federal, state and local government web resources and services.